Point Salines Arpt, Grenada

12:54 PM AST on March 25, 2017 (GMT -0400)
Point Salines Arpt

Weather History for 78958 - November, 2013

Change the Weather History Date:

Sunday, November 17, 2013

  Actual Average Record
Temperature  
Mean Temperature 80 °F -  
Max Temperature 87 °F 83 °F - ()
Min Temperature 72 °F 74 °F - ()
Cooling Degree Days 14    
Growing Degree Days 30 (Base 50)    
Moisture  
Dew Point 75 °F    
Average Humidity 81    
Maximum Humidity 95    
Minimum Humidity 65    
Precipitation  
Precipitation 0.00 in - - ()
Sea Level Pressure  
Sea Level Pressure 29.81 in    
Wind  
Wind Speed 2 mph ()    
Max Wind Speed 12 mph    
Max Gust Speed -    
Visibility 7.8 miles    
Events      
T = Trace of Precipitation, MM = Missing Value Source: Averaged Metar Reports

Daily Weather History Graph

Daily Weather History Graph

Search for Another Location

Airport or City:

Trip Planner

Search our weather history database for the weather conditions in past years. The results will help you decide how hot, cold, wet, or windy it might be!

Date:

Astronomy

Nov. 17, 2013 Rise Set
Actual Time 6:05 AM AST 5:38 PM AST
Civil Twilight 5:43 AM AST 6:01 PM AST
Nautical Twilight 5:17 AM AST 6:26 PM AST
Astronomical Twilight 4:51 AM AST 6:52 PM AST
Moon 5:51 PM AST (11/17) 5:57 AM AST (11/17)
Length of Visible Light 12h 18m
Length of Day
11h 33m
Full, 100% of the Moon is Illuminated
Nov 17
Full
Nov 25
Last Quarter
Dec 2
New
Dec 9
First Quarter
Dec 17
Full

Hourly Weather History & Observations

Time (AST) Temp. Heat Index Dew Point Humidity Pressure Visibility Wind Dir Wind Speed Gust Speed Precip Events Conditions
12:00 AM 77.0 °F - 73.4 °F 89% 29.83 in 6.2 mi Calm Calm - N/A   Partly Cloudy
1:00 AM 75.2 °F - 73.4 °F 94% 29.83 in 6.2 mi Calm Calm - N/A   Partly Cloudy
2:00 AM 75 °F - 73 °F 92% 29.81 in 16 mi Calm Calm - -   Scattered Clouds
2:00 AM 75.2 °F - 73.4 °F 94% 29.80 in 6.2 mi Calm Calm - N/A   Partly Cloudy
3:00 AM 77.0 °F - 73.4 °F 89% 29.80 in 6.2 mi Calm Calm - N/A   Partly Cloudy
4:00 AM 75.2 °F - 73.4 °F 94% 29.77 in 6.2 mi Calm Calm - N/A   Partly Cloudy
5:00 AM 73 °F - 72 °F 95% 29.80 in 16 mi Calm Calm - -   Scattered Clouds
7:00 AM 82.4 °F 90.9 °F 77.0 °F 84% 29.83 in 6.2 mi Calm Calm - N/A   Unknown
8:00 AM 83 °F - 76 °F 74% 29.85 in 16 mi Calm Calm - -   Scattered Clouds
8:00 AM 84.2 °F 92.3 °F 75.2 °F 74% 29.83 in 6.2 mi Calm Calm - N/A   Unknown
9:00 AM 84.2 °F 92.3 °F 75.2 °F 74% 29.86 in 6.2 mi ESE 6.9 mph - N/A   Partly Cloudy
10:00 AM 87.8 °F 99.7 °F 77.0 °F 70% 29.86 in 6.2 mi SSE 10.4 mph - N/A   Scattered Clouds
11:00 AM 86.0 °F 95.1 °F 75.2 °F 70% 29.86 in 6.2 mi WNW 11.5 mph - N/A   Unknown
12:00 PM 86.0 °F 95.1 °F 75.2 °F 70% 29.83 in 6.2 mi WNW 10.4 mph - N/A   Scattered Clouds
1:00 PM 86.0 °F 95.1 °F 75.2 °F 70% 29.80 in 6.2 mi NW 10.4 mph - N/A   Mostly Cloudy
2:00 PM 86 °F - 76 °F 65% 29.79 in 11 mi 2.3 mph - -  
2:00 PM 86.0 °F 95.1 °F 75.2 °F 70% 29.77 in 6.2 mi Variable 2.3 mph - N/A   Scattered Clouds
3:00 PM - - - N/A% 29.77 in 6.2 mi NNW 6.9 mph - N/A   Mostly Cloudy
4:00 PM 84.2 °F 92.3 °F 75.2 °F 74% 29.77 in 6.2 mi NNW 3.5 mph - N/A   Mostly Cloudy
5:00 PM 84 °F - 76 °F 71% 29.77 in 7 mi NNW 6.9 mph - -   Mostly Cloudy
5:00 PM 84.2 °F 92.3 °F 75.2 °F 74% 29.77 in 6.2 mi NNW 6.9 mph - N/A   Mostly Cloudy
6:00 PM 80.6 °F 86.2 °F 75.2 °F 84% 29.77 in 6.2 mi ENE 3.5 mph - N/A   Scattered Clouds
8:00 PM 78 °F - 75 °F 86% 29.80 in 9 mi Calm Calm - -   Widespread Dust
8:00 PM 78.8 °F - 75.2 °F 89% 29.80 in 6.2 mi Calm Calm - N/A   Partly Cloudy
9:00 PM 77.0 °F - 75.2 °F 94% 29.80 in 6.2 mi Calm Calm - N/A   Partly Cloudy
10:00 PM 78.8 °F - 75.2 °F 89% 29.80 in 6.2 mi Calm Calm - N/A   Partly Cloudy
11:00 PM 78 °F - 74 °F 84% 29.81 in 12 mi Calm Calm - -   Widespread Dust
11:00 PM 78.8 °F - 73.4 °F 83% 29.80 in 6.2 mi Calm Calm - N/A   Partly Cloudy